N2RFA-13 Weather Reports


Display with metric or nautical units.
time (UTC)temp
F
wind
direction
speed
MPH
gust
MPH
rain 1hr
in
rain 24hr
in
rain mn
in
humidity
%
barometer
mb
20260902170050 0 0.0 0.0 0.00 0.34 0.00 1021.3
20260902164544 0 0.0 0.0 0.00 0.34 0.00 1021.4
20260902163057 0 0.0 0.0 0.00 0.34 0.00 1021.4
20260902161536 0 0.0 0.0 0.00 0.34 0.00 1021.7
20260902160031 0 0.0 0.0 0.00 0.34 0.00 1021.7
20260902154528 0 0.0 0.0 0.00 0.34 0.00 1021.7
20260902153025 0 0.0 0.0 0.00 0.34 0.00 1021.6
20260902151518 0 0.0 0.0 0.00 0.34 0.00 1021.6
20260902150014 0 0.0 0.0 0.00 0.34 0.00 1021.6
20260902144518 0 0.0 0.0 0.00 0.34 0.00 1021.8
20260902143012 0 0.0 0.0 0.00 0.34 0.00 1021.3
20260902141508 0 0.0 0.0 0.00 0.34 0.00 1021.4
20260902140002 0 0.0 0.0 0.00 0.34 0.00 1021.4
20260902134559 0 0.0 0.0 0.00 0.34 0.00 1021.6
20260902133100 0 0.0 0.0 0.00 0.34 0.00 1021.3
20260902131557 0 0.0 0.0 0.00 0.34 0.00 1021.4
20260902130044 0 0.0 0.0 0.00 0.34 0.00 1021.3
20260902124539 0 0.0 0.0 0.00 0.34 0.00 1021.2
20260902123049 0 0.0 0.0 0.00 0.34 0.00 1021.1
20260902121531 0 0.0 0.0 0.00 0.34 0.00 1020.7
20260902120034 0 0.0 0.0 0.00 0.34 0.00 1020.7
20260902114529 0 0.0 0.0 0.00 0.34 0.00 1020.7
20260902113023 0 0.0 0.0 0.00 0.34 0.00 1020.7
20260902111531 0 0.0 0.0 0.00 0.34 0.00 1020.6
20260902110019 0 0.0 0.0 0.00 0.34 0.00 1020.5
20260902104509 0 0.0 0.0 0.00 0.34 0.00 1020.5
20260902103005 0 0.0 0.0 0.00 0.34 0.00 1020.6
20260902101600 0 0.0 0.0 0.00 0.34 0.00 1020.4
20260902100105 0 0.0 0.0 0.00 0.34 0.00 1020.3
20260902094551 0 0.0 0.0 0.00 0.34 0.00 1020.2
20260902093047 0 0.0 0.0 0.00 0.34 0.00 1020.1
20260902091549 0 0.0 0.0 0.00 0.34 0.00 1020.0
20260902090040 64 44 0.0 0.0 0.00 0.34 0.00 97 1019.9
20260902084537 64 44 0.0 1.0 0.00 0.34 0.00 97 1019.8
20260902083036 64 44 0.0 1.0 0.00 0.34 0.00 97 1019.6
20260902081537 64 179 0.0 0.0 0.00 0.34 0.00 97 1019.5
20260902080035 64 179 0.0 0.0 0.00 0.34 0.00 97 1019.5
20260902074538 64 179 0.0 0.0 0.00 0.35 0.00 97 1019.4
20260902073033 64 179 0.0 0.0 0.00 0.35 0.00 97 1019.4
20260902071533 64 179 0.0 0.0 0.00 0.35 0.00 97 1019.4
20260902070032 64 178 0.0 0.0 0.00 0.35 0.00 97 1019.0
20260902064531 64 169 0.0 1.0 0.00 0.35 0.00 97 1019.2
20260902063040 64 179 0.0 1.0 0.00 0.35 0.00 97 1019.0
20260902061530 64 167 0.0 0.0 0.00 0.35 0.00 97 1019.2
20260902060029 64 121 0.0 1.0 0.00 0.35 0.00 96 1019.3
20260902054530 64 116 0.0 2.0 0.00 0.35 0.00 96 1019.5
20260902053027 64 124 0.0 1.0 0.00 0.35 0.00 96 1019.6
20260902051525 64 38 0.0 1.0 0.00 0.35 0.00 96 1019.5
20260902050050 65 123 0.0 1.0 0.00 0.35 0.00 96 1019.4
20260902044521 65 99 0.0 2.0 0.00 0.38 0.00 96 1019.3
20260902043030 65 130 0.0 0.0 0.00 0.38 0.00 96 1019.2
20260902041518 66 122 0.0 1.0 0.00 0.38 0.00 96 1019.1
20260902040020 66 341 0.0 1.0 0.00 0.38 0.00 96 1019.0
20260902034516 66 194 0.0 1.0 0.00 0.47 0.38 96 1018.8
20260902033011 66 132 0.0 1.0 0.00 0.47 0.38 96 1018.5
20260902031509 67 127 0.0 1.0 0.00 0.47 0.38 96 1018.4
20260902030008 67 10 0.0 2.0 0.00 0.47 0.38 96 1017.8
20260902024507 68 330 0.0 2.0 0.00 0.53 0.38 96 1017.9
20260902023006 68 194 0.0 1.0 0.00 0.53 0.38 96 1017.7
20260902021507 69 194 0.0 1.0 0.00 0.53 0.38 96 1017.4
20260902020006 70 269 0.0 1.0 0.00 0.53 0.38 97 1016.8
20260902014504 71 300 0.0 1.0 0.00 0.53 0.38 96 1016.8
20260902013004 71 178 0.0 1.0 0.00 0.53 0.38 97 1016.7
20260902011503 71 179 0.0 1.0 0.00 0.53 0.38 97 1016.4
20260902010006 71 162 0.0 0.0 0.00 0.53 0.38 97 1016.3
20260902004502 70 162 0.0 0.0 0.00 0.53 0.38 96 1016.0
20260902003002 70 162 0.0 0.0 0.00 0.53 0.38 96 1015.7
20260902001600 70 162 0.0 0.0 0.00 0.53 0.38 96 1015.8
20260902000104 70 162 0.0 0.0 0.00 0.53 0.38 96 1015.8
20260901234600 71 162 0.0 0.0 0.00 0.53 0.38 96 1015.5
20260901233058 71 162 0.0 0.0 0.30 0.53 0.38 95 1015.4
20260901231559 71 143 0.0 0.0 0.33 0.53 0.38 95 1015.7
20260901230106 72 131 0.0 1.0 0.34 0.53 0.38 95 1014.9
20260901224557 73 120 0.0 1.0 0.34 0.53 0.38 94 1015.6
20260901223105 74 178 0.0 0.0 0.04 0.23 0.08 92 1015.3
20260901221555 77 311 0.0 3.0 0.01 0.20 0.05 93 1014.8
20260901220115 77 179 0.0 1.0 0.00 0.19 0.04 94 1014.2
20260901214552 78 154 0.0 0.0 0.00 0.19 0.04 93 1014.4
20260901213052 78 154 0.0 0.0 0.00 0.19 0.04 92 1014.7
20260901211551 78 154 0.0 0.0 0.00 0.19 0.04 92 1014.5
20260901210052 79 154 0.0 0.0 0.00 0.19 0.04 90 1014.7
20260901204549 80 155 0.0 2.0 0.00 0.19 0.04 89 1014.6
20260901203053 80 134 0.0 3.0 0.00 0.19 0.04 88 1014.5
20260901201553 80 150 0.0 2.0 0.00 0.19 0.04 90 1014.7
20260901200046 80 141 0.0 1.0 0.00 0.19 0.04 89 1014.7
20260901194547 81 137 0.0 1.0 0.00 0.19 0.04 87 1014.8
20260901193044 82 133 0.0 2.0 0.00 0.19 0.04 85 1014.7
20260901191603 80 135 0.0 1.0 0.00 0.19 0.04 87 1014.8
20260901190042 81 130 0.0 3.0 0.00 0.19 0.04 85 1015.0
20260901184605 81 155 0.0 2.0 0.00 0.19 0.04 88 1015.1
20260901183038 80 130 0.0 3.0 0.00 0.19 0.04 87 1015.2
20260901181548 79 133 0.0 3.0 0.00 0.19 0.04 91 1015.1
20260901180030 78 146 1.0 4.0 0.00 0.19 0.04 90 1015.1
20260901174546 77 159 0.0 3.0 0.00 0.19 0.04 94 1015.0
20260901173022 76 137 0.0 4.0 0.00 0.19 0.04 97 1015.1
20260901171520 74 161 0.0 3.0 0.00 0.19 0.04 98 1015.3